Weather History for Glendale Luke AFB, AZ

Change the Weather History Date:

Sunday, August 25, 2013

  Actual Average Record
Temperature  
Mean Temperature 80 °F -  
Max Temperature 84 °F 105 °F 116 °F (1985)
Min Temperature 77 °F 71 °F 59 °F (1941)
Cooling Degree Days 16    
Growing Degree Days 30 (Base 50)    
Moisture  
Dew Point 71 °F    
Average Humidity 72    
Maximum Humidity 95    
Minimum Humidity 60    
Precipitation  
Precipitation 0.14 in - - ()
Sea Level Pressure  
Sea Level Pressure 29.92 in    
Wind  
Wind Speed 6 mph (NNW)    
Max Wind Speed 10 mph    
Max Gust Speed -    
Visibility 10 miles    
Events Rain    
Averages and records for this station are not official NWS values.
T = Trace of Precipitation, MM = Missing Value Source: NWS Daily Summary

Daily Weather History Graph

Daily Weather History Graph

Search for Another Location

Airport:

Trip Planner

Search our weather history database for the weather conditions in past years. The results will help you decide how hot, cold, wet, or windy it might be!

Date:

Astronomy

Aug. 25, 2013 Rise Set
Actual Time 5:59 AM MST 7:03 PM MST
Civil Twilight 5:33 AM MST 7:29 PM MST
Nautical Twilight 5:02 AM MST 7:59 PM MST
Astronomical Twilight 4:31 AM MST 8:30 PM MST
Moon 9:55 PM MST (8/25) 10:46 AM MST (8/25)
Length of Visible Light 13h 55m
Length of Day
13h 04m
Waning Gibbous, 75% of the Moon is Illuminated
Aug 25
Waning Gibbous
Aug 28
Last Quarter
Sep 5
New
Sep 12
First Quarter
Sep 19
Full

Hourly Weather History & Observations

Time (MST) Temp. Heat Index Dew Point Humidity Pressure Visibility Wind Dir Wind Speed Gust Speed Precip Events Conditions
12:58 AM 83.3 °F 86.4 °F 68.0 °F 60% 29.85 in 10.0 mi ESE 2.3 mph - N/A   Scattered Clouds
1:58 AM 82.2 °F 85.5 °F 68.7 °F 64% 29.86 in 10.0 mi South 5.8 mph - N/A   Mostly Cloudy
2:58 AM 81.0 °F 84.4 °F 70.0 °F 69% 29.87 in 10.0 mi SSE 5.8 mph - N/A   Mostly Cloudy
3:28 AM 80.6 °F 83.9 °F 69.8 °F 70% 29.91 in 10.0 mi South 5.8 mph - N/A   Mostly Cloudy
3:58 AM 81.0 °F 83.9 °F 68.7 °F 66% 29.87 in 10.0 mi South 6.9 mph - N/A   Mostly Cloudy
4:58 AM 80.6 °F 83.2 °F 68.0 °F 65% 29.89 in 10.0 mi SSW 5.8 mph - N/A   Mostly Cloudy
5:38 AM 78.8 °F - 69.8 °F 74% 29.94 in 6.0 mi Variable 2.3 mph - N/A Rain Rain
5:58 AM 77.5 °F - 72.5 °F 84% 29.91 in 3.0 mi ESE 2.3 mph - 0.11 in Rain Light Rain
6:08 AM 77.0 °F - 71.6 °F 83% 29.95 in 10.0 mi North 3.5 mph - N/A Rain Light Rain
6:18 AM 77.0 °F - 73.4 °F 89% 29.95 in 10.0 mi NNW 6.9 mph - N/A Rain Light Rain
6:58 AM 77.0 °F - 75.6 °F 95% 29.93 in 10.0 mi North 5.8 mph - 0.01 in   Light Drizzle
7:58 AM 78.6 °F - 72.0 °F 80% 29.94 in 10.0 mi NNE 9.2 mph - 0.00 in   Clear
8:58 AM 78.6 °F - 71.8 °F 79% 29.96 in 10.0 mi North 6.9 mph - 0.00 in Rain Light Rain
8:59 AM 78.8 °F - 71.6 °F 78% 29.99 in 10.0 mi North 6.9 mph - N/A Rain Light Rain
9:58 AM 79.7 °F - 72.1 °F 78% 29.98 in 10.0 mi North 8.1 mph - 0.01 in   Light Drizzle
10:58 AM 80.2 °F 84.0 °F 71.8 °F 75% 29.97 in 10.0 mi North 9.2 mph - 0.00 in Rain Light Rain
11:58 AM 81.5 °F 85.3 °F 70.3 °F 69% 29.97 in 10.0 mi NNW 6.9 mph - 0.00 in   Light Drizzle
12:58 PM 81.9 °F 86.6 °F 72.0 °F 72% 29.94 in 9.0 mi North 6.9 mph - 0.00 in Rain Light Rain
1:58 PM 81.9 °F 86.4 °F 71.6 °F 71% 29.94 in 10.0 mi NNW 8.1 mph - 0.01 in Rain Light Rain
2:58 PM 82.2 °F 87.1 °F 72.0 °F 71% 29.91 in 10.0 mi NNW 6.9 mph - 0.00 in   Light Drizzle
3:58 PM 84.2 °F 87.9 °F 69.1 °F 60% 29.90 in 10.0 mi NNW 8.1 mph - 0.00 in   Partly Cloudy
4:58 PM 84.2 °F 87.9 °F 69.1 °F 60% 29.88 in 10.0 mi NW 6.9 mph - N/A   Clear
5:58 PM 83.8 °F 87.5 °F 69.3 °F 61% 29.88 in 10.0 mi NW 6.9 mph - N/A   Partly Cloudy
6:58 PM 82.9 °F 86.7 °F 69.6 °F 64% 29.89 in 10.0 mi NW 5.8 mph - N/A   Mostly Cloudy
7:58 PM 82.0 °F 85.9 °F 70.0 °F 67% 29.89 in 10.0 mi NNW 5.8 mph - N/A   Mostly Cloudy
8:58 PM 81.7 °F 85.8 °F 71.1 °F 70% 29.91 in 10.0 mi NNW 5.8 mph - N/A   Mostly Cloudy
9:18 PM 80.6 °F 84.6 °F 71.6 °F 74% 29.95 in 10.0 mi NW 5.8 mph - N/A   Mostly Cloudy
9:38 PM 80.6 °F 84.6 °F 71.6 °F 74% 29.95 in 10.0 mi NW 8.1 mph - N/A Rain Light Rain
9:58 PM 80.8 °F 84.4 °F 70.7 °F 71% 29.93 in 10.0 mi NW 6.9 mph - 0.00 in   Light Drizzle
10:58 PM 79.5 °F - 71.8 °F 77% 29.91 in 10.0 mi NNW 10.4 mph - 0.00 in   Scattered Clouds
11:58 PM 79.2 °F - 68.7 °F 70% 29.90 in 10.0 mi North 8.1 mph - 0.00 in   Mostly Cloudy